EW5822 Weather Reports


Display with metric or nautical units.
time (UTC)temp
F
wind
direction
speed
MPH
gust
MPH
rain 1hr
in
rain 24hr
in
rain mn
in
humidity
%
barometer
mb
20260831231116 100 118 11.0 15.0 0.00 0.00 0.00 42 1010.1
20260831230003 100 121 13.0 18.0 0.00 0.00 0.00 38 1010.1
20260831225403 101 125 12.0 16.0 0.00 0.00 0.00 38 1010.1
20260831224717 102 134 13.0 17.0 0.00 0.00 0.00 36 1010.1
20260831223603 102 129 12.0 17.0 0.00 0.00 0.00 37 1010.1
20260831222703 102 132 10.0 16.0 0.00 0.00 0.00 36 1010.2
20260831221803 102 124 13.0 18.0 0.00 0.00 0.00 35 1010.3
20260831220903 103 133 12.0 19.0 0.00 0.00 0.00 35 1010.4
20260831220214 102 98 13.0 20.0 0.00 0.00 0.00 35 1010.4
20260831215403 103 139 11.0 21.0 0.00 0.00 0.00 36 1010.5
20260831214503 103 157 13.0 18.0 0.00 0.00 0.00 35 1010.6
20260831213815 103 151 9.0 17.0 0.00 0.00 0.00 35 1010.7
20260831212703 103 147 7.0 13.0 0.00 0.00 0.00 35 1010.8
20260831212014 103 156 7.0 12.0 0.00 0.00 0.00 36 1010.9
20260831211117 102 151 7.0 14.0 0.00 0.00 0.00 35 1010.9
20260831210004 102 142 9.0 12.0 0.00 0.00 0.00 36 1011.1
20260831205616 103 164 7.0 12.0 0.00 0.00 0.00 36 1011.1
20260831204713 102 158 7.0 13.0 0.00 0.00 0.00 35 1011.3
20260831203815 102 175 10.0 20.0 0.00 0.00 0.00 35 1011.4
20260831202703 102 153 11.0 19.0 0.00 0.00 0.00 36 1011.6
20260831202015 102 163 7.0 15.0 0.00 0.00 0.00 37 1011.6
20260831200903 101 157 11.0 19.0 0.00 0.00 0.00 36 1011.7
20260831200004 101 165 6.0 15.0 0.00 0.00 0.00 37 1011.7
20260831195616 101 165 8.0 15.0 0.00 0.00 0.00 36 1011.8
20260831194503 101 151 10.0 20.0 0.00 0.00 0.00 37 1011.9
20260831193816 100 131 9.0 17.0 0.00 0.00 0.00 39 1011.9
20260831192703 99 91 8.0 15.0 0.00 0.00 0.00 40 1012.0
20260831191803 99 93 9.0 15.0 0.00 0.00 0.00 41 1012.1
20260831190903 99 108 7.0 11.0 0.00 0.00 0.00 40 1012.3
20260831190215 99 117 5.0 12.0 0.00 0.00 0.00 41 1012.3
20260831185617 98 136 6.0 13.0 0.00 0.00 0.00 41 1012.4
20260831184503 98 111 6.0 14.0 0.00 0.00 0.00 41 1012.5
20260831183603 97 100 8.0 14.0 0.00 0.00 0.00 43 1012.5
20260831182703 96 119 7.0 14.0 0.00 0.00 0.00 42 1012.5
20260831181803 97 116 9.0 16.0 0.00 0.00 0.00 41 1012.5
20260831181114 97 124 8.0 14.0 0.00 0.00 0.00 41 1012.5
20260831180004 96 109 7.0 15.0 0.00 0.00 0.00 43 1012.7
20260831175404 96 124 9.0 15.0 0.00 0.00 0.00 42 1012.7
20260831174503 96 136 7.0 12.0 0.00 0.00 0.00 43 1012.7
20260831173817 95 134 8.0 12.0 0.00 0.00 0.00 45 1012.8
20260831172915 95 147 9.0 14.0 0.00 0.00 0.00 43 1012.8
20260831172017 96 128 11.0 16.0 0.00 0.00 0.00 42 1012.8
20260831170903 96 142 9.0 16.0 0.00 0.00 0.00 45 1012.9
20260831170217 95 132 9.0 14.0 0.00 0.00 0.00 43 1012.9
20260831165613 95 116 11.0 16.0 0.00 0.00 0.00 43 1012.9
20260831164503 95 140 11.0 15.0 0.00 0.00 0.00 44 1012.9
20260831163813 94 139 11.0 15.0 0.00 0.00 0.00 46 1013.0
20260831162703 94 139 12.0 20.0 0.00 0.00 0.00 45 1013.0
20260831161803 93 149 12.0 20.0 0.00 0.00 0.00 47 1012.8
20260831161115 92 157 10.0 16.0 0.00 0.00 0.00 49 1013.0
20260831160212 91 160 11.0 16.0 0.00 0.00 0.00 52 1013.1
20260831155403 89 157 12.0 20.0 0.00 0.00 0.00 53 1013.1
20260831154716 89 136 13.0 20.0 0.00 0.00 0.00 55 1012.6
20260831153813 87 134 15.0 19.0 0.00 0.00 0.00 59 1012.3
20260831152916 86 138 14.0 20.0 0.00 0.00 0.00 58 1012.2
20260831151803 86 135 13.0 17.0 0.00 0.00 0.00 59 1012.2
20260831150904 86 132 11.0 16.0 0.00 0.00 0.00 62 1012.1
20260831150003 84 133 11.0 15.0 0.00 0.00 0.00 65 1012.1
20260831145403 84 132 12.0 16.0 0.00 0.00 0.00 65 1012.1
20260831144717 84 132 13.0 16.0 0.00 0.00 0.00 64 1012.1
20260831143814 85 141 11.0 14.0 0.00 0.00 0.00 63 1012.3
20260831142917 85 137 10.0 13.0 0.00 0.00 0.00 65 1012.4
20260831141803 82 121 9.0 12.0 0.00 0.00 0.00 68 1012.4
20260831140903 81 127 8.0 12.0 0.00 0.00 0.00 70 1012.5
20260831140003 81 135 5.0 10.0 0.00 0.00 0.00 69 1012.7
20260831135403 81 137 4.0 7.0 0.00 0.00 0.00 70 1012.6
20260831134712 80 144 4.0 7.0 0.00 0.00 0.00 70 1012.6
20260831133815 80 157 3.0 6.0 0.00 0.00 0.00 69 1012.6
20260831132917 80 168 5.0 8.0 0.00 0.00 0.00 69 1012.7
20260831131803 80 193 4.0 6.0 0.00 0.00 0.00 69 1012.8
20260831130903 79 185 4.0 6.0 0.00 0.00 0.00 68 1012.8
20260831130214 79 186 3.0 6.0 0.00 0.00 0.00 68 1012.6
20260831125403 79 201 4.0 6.0 0.00 0.00 0.00 67 1012.6
20260831124713 78 205 3.0 5.0 0.00 0.00 0.00 68 1012.6
20260831123815 78 206 1.0 4.0 0.00 0.00 0.00 66 1012.3
20260831122703 78 209 3.0 6.0 0.00 0.00 0.00 65 1012.2
20260831121803 79 218 4.0 9.0 0.00 0.00 0.00 63 1012.1
20260831121112 79 217 4.0 9.0 0.00 0.00 0.00 62 1012.1
20260831120003 78 214 4.0 9.0 0.00 0.00 0.00 62 1012.0
20260831115616 78 205 4.0 9.0 0.00 0.00 0.00 62 1012.1
20260831114714 79 207 6.0 9.0 0.00 0.00 0.00 62 1012.0
20260831113603 80 225 6.0 12.0 0.00 0.00 0.00 60 1011.9
20260831112913 80 220 8.0 13.0 0.00 0.00 0.00 60 1011.9
20260831111803 80 185 12.0 19.0 0.00 0.00 0.00 61 1011.7
20260831110903 80 178 15.0 27.0 0.00 0.00 0.00 60 1011.4
20260831110215 81 174 16.0 27.0 0.00 0.00 0.00 59 1011.1
20260831105617 81 174 17.0 26.0 0.00 0.00 0.00 58 1010.9
20260831104503 81 165 19.0 31.0 0.00 0.00 0.00 59 1010.6
20260831103817 81 158 19.0 30.0 0.00 0.00 0.00 59 1010.5
20260831102914 80 161 18.0 27.0 0.00 0.00 0.00 60 1010.6
20260831102016 80 159 16.0 23.0 0.00 0.00 0.00 62 1010.7
20260831101114 78 154 13.0 20.0 0.00 0.00 0.00 65 1010.8
20260831100216 77 150 12.0 17.0 0.00 0.00 0.00 69 1010.7
20260831095403 75 127 11.0 16.0 0.00 0.00 0.00 72 1010.7
20260831094715 75 124 10.0 14.0 0.00 0.00 0.00 74 1010.6
20260831093817 74 133 11.0 14.0 0.00 0.00 0.00 74 1010.3
20260831092915 73 137 8.0 10.0 0.00 0.00 0.00 77 1010.4
20260831092017 73 118 7.0 8.0 0.00 0.00 0.00 78 1010.5
20260831090903 74 124 7.0 8.0 0.00 0.00 0.00 77 1010.5
20260831090003 74 118 3.0 7.0 0.00 0.00 0.00 77 1010.5
20260831085403 74 126 3.0 4.0 0.00 0.00 0.00 76 1010.5
20260831084503 74 120 4.0 8.0 0.00 0.00 0.00 76 1010.3
20260831083813 75 113 6.0 8.0 0.00 0.00 0.00 75 1010.0
20260831082915 75 145 3.0 6.0 0.00 0.00 0.00 75 1010.0
20260831082013 74 144 2.0 4.0 0.00 0.00 0.00 76 1010.2
20260831080903 75 144 3.0 3.0 0.00 0.00 0.00 75 1010.1
20260831080003 75 144 4.0 6.0 0.00 0.00 0.00 74 1010.0
20260831075614 75 146 5.0 6.0 0.00 0.00 0.00 74 1010.0
20260831074716 77 159 7.0 8.0 0.00 0.00 0.00 72 1009.9
20260831073814 78 169 6.0 9.0 0.00 0.00 0.00 68 1009.9
20260831072703 76 143 6.0 9.0 0.00 0.00 0.00 71 1010.0
20260831071806 76 137 7.0 9.0 0.00 0.00 0.00 72 1009.6
20260831071116 77 144 6.0 8.0 0.00 0.00 0.00 71 1009.9
20260831070213 78 154 6.0 9.0 0.00 0.00 0.00 68 1010.1
20260831065614 78 158 7.0 8.0 0.00 0.00 0.00 67 1010.1
20260831064503 78 161 7.0 10.0 0.00 0.00 0.00 69 1010.1
20260831063814 78 165 6.0 7.0 0.00 0.00 0.00 69 1010.2
20260831062917 79 166 5.0 7.0 0.00 0.00 0.00 67 1010.3
20260831062014 81 166 5.0 6.0 0.00 0.00 0.00 66 1010.3
20260831061116 81 160 5.0 6.0 0.00 0.00 0.00 65 1010.3
20260831060003 80 151 5.0 8.0 0.00 0.00 0.00 67 1010.1
20260831055615 80 153 6.0 8.0 0.00 0.00 0.00 67 1010.0
20260831054503 79 156 7.0 9.0 0.00 0.00 0.00 69 1009.9
20260831053815 79 144 6.0 8.0 0.00 0.00 0.00 70 1009.6
20260831052917 80 150 4.0 7.0 0.00 0.00 0.00 68 1009.4
20260831051803 81 153 5.0 7.0 0.00 0.00 0.00 66 1009.4
20260831051122 81 154 5.0 7.0 0.00 0.00 0.00 66 1009.4
20260831050214 81 157 6.0 7.0 0.00 0.00 0.00 66 1009.2
20260831045403 81 163 5.0 7.0 0.00 0.00 0.00 66 1009.2
20260831044713 82 168 5.0 8.0 0.00 0.00 0.00 65 1009.1
20260831043815 83 176 4.0 7.0 0.00 0.00 0.00 62 1009.1
20260831042913 84 179 4.0 6.0 0.00 0.00 0.00 61 1009.1
20260831041804 84 179 4.0 6.0 0.00 0.00 0.00 60 1009.0
20260831040903 84 175 5.0 7.0 0.00 0.00 0.00 60 1008.9
20260831040215 85 176 4.0 7.0 0.00 0.00 0.00 59 1008.8
20260831035403 85 181 4.0 6.0 0.00 0.00 0.00 59 1008.9
20260831034714 85 188 3.0 5.0 0.00 0.00 0.00 59 1008.7
20260831033816 85 189 4.0 4.0 0.00 0.00 0.00 59 1008.8
20260831032913 85 189 4.0 5.0 0.00 0.00 0.00 60 1008.6
20260831031803 85 192 5.0 6.0 0.00 0.00 0.00 60 1008.7
20260831030903 86 192 4.0 6.0 0.00 0.00 0.00 60 1008.6
20260831030215 86 189 5.0 6.0 0.00 0.00 0.00 60 1008.5
20260831025617 86 183 4.0 6.0 0.00 0.00 0.00 60 1008.4
20260831024714 86 184 4.0 12.0 0.00 0.00 0.00 60 1008.3
20260831023603 86 190 3.0 5.0 0.00 0.00 0.00 59 1008.2
20260831022703 86 180 2.0 9.0 0.00 0.00 0.00 60 1008.1
20260831021803 87 145 4.0 8.0 0.00 0.00 0.00 60 1007.8
20260831021114 88 155 4.0 9.0 0.00 0.00 0.00 57 1007.6
20260831020216 88 155 2.0 6.0 0.00 0.00 0.00 57 1007.5
20260831015403 89 155 2.0 6.0 0.00 0.00 0.00 57 1007.3
20260831014503 88 154 2.0 4.0 0.00 0.00 0.00 57 1007.3
20260831013603 87 137 1.0 3.0 0.00 0.00 0.00 62 1007.1
20260831012703 88 134 4.0 8.0 0.00 0.00 0.00 61 1007.0
20260831012017 88 130 7.0 10.0 0.00 0.00 0.00 61 1006.8
20260831011114 89 116 9.0 11.0 0.00 0.00 0.00 59 1006.7
20260831010217 90 96 10.0 12.0 0.00 0.00 0.00 58 1006.6
20260831005613 91 96 10.0 13.0 0.00 0.00 0.00 56 1006.5
20260831004503 92 86 10.0 13.0 0.00 0.00 0.00 55 1006.5
20260831003604 93 114 9.0 12.0 0.00 0.00 0.00 54 1006.6
20260831002915 94 54 10.0 12.0 0.00 0.00 0.00 53 1006.5
20260831001803 96 85 9.0 11.0 0.00 0.00 0.00 51 1006.5
20260831001115 97 114 9.0 12.0 0.00 0.00 0.00 49 1006.5
20260831000003 98 123 9.0 13.0 0.00 0.00 0.00 45 1006.6
20260830235403 99 132 10.0 14.0 0.00 0.00 0.00 43 1006.6
20260830234503 100 135 10.0 14.0 0.00 0.00 0.00 41 1006.6
20260830233603 101 145 12.0 17.0 0.00 0.00 0.00 39 1006.4
20260830232916 102 149 12.0 19.0 0.00 0.00 0.00 38 1006.5
20260830231803 102 153 12.0 20.0 0.00 0.00 0.00 37 1006.4